�������l�o���
Date,Time,MP-1(��Sv/h),MP-2(��Sv/h),MP-3(��Sv/h),MP-4(��Sv/h),MP-5(��Sv/h),MP-6(��Sv/h),MP-7(��Sv/h),MP-8(��Sv/h),����,����(m/s),���J
2020/02/05,00:00,0.696,1.007,0.658,1.253,0.876,0.403,0.703,0.669,���쐼,3.0,��
2020/02/05,00:10,0.697,1.007,0.656,1.253,0.875,0.401,0.703,0.668,�쐼,3.4,��
2020/02/05,00:20,0.695,1.006,0.657,1.253,0.875,0.404,0.704,0.668,���쐼,3.1,��
2020/02/05,00:30,0.698,1.009,0.656,1.253,0.876,0.403,0.703,0.670,���쐼,2.8,��
2020/02/05,00:40,0.699,1.008,0.658,1.253,0.874,0.403,0.704,0.670,���쐼,2.8,��
2020/02/05,00:50,0.697,1.008,0.656,1.252,0.875,0.402,0.705,0.668,���쐼,2.9,��
2020/02/05,01:00,0.697,1.008,0.660,1.250,0.871,0.403,0.704,0.669,�쐼,2.8,��
2020/02/05,01:10,0.698,1.007,0.658,1.254,0.877,0.402,0.704,0.670,�쐼,2.6,��
2020/02/05,01:20,0.698,1.007,0.660,1.251,0.876,0.403,0.704,0.668,�쐼,3.0,��
2020/02/05,01:30,0.697,1.007,0.658,1.253,0.875,0.404,0.704,0.668,�쐼,3.6,��
2020/02/05,01:40,0.698,1.009,0.659,1.255,0.873,0.402,0.706,0.670,�쐼,2.0,��
2020/02/05,01:50,0.697,1.006,0.658,1.254,0.875,0.403,0.704,0.669,�쐼,2.6,��
2020/02/05,02:00,0.696,1.007,0.659,1.254,0.875,0.402,0.704,0.669,��,2.9,��
2020/02/05,02:10,0.697,1.008,0.657,1.252,0.876,0.403,0.703,0.670,�k��,2.2,��
2020/02/05,02:20,0.694,1.008,0.657,1.252,0.875,0.402,0.703,0.668,���k��,2.8,��
2020/02/05,02:30,0.697,1.008,0.657,1.254,0.876,0.402,0.703,0.669,��,2.5,��
2020/02/05,02:40,0.696,1.009,0.659,1.252,0.875,0.403,0.703,0.668,��,4.9,��
2020/02/05,02:50,0.696,1.009,0.657,1.254,0.872,0.401,0.704,0.669,��,4.7,��
2020/02/05,03:00,0.698,1.008,0.660,1.253,0.875,0.403,0.703,0.668,��,6.1,��
2020/02/05,03:10,0.696,1.006,0.659,1.253,0.875,0.403,0.703,0.670,���k��,7.8,��
2020/02/05,03:20,0.695,1.007,0.658,1.254,0.875,0.404,0.705,0.669,���k��,8.2,��
2020/02/05,03:30,0.697,1.008,0.659,1.252,0.875,0.401,0.704,0.668,���k��,8.2,��
2020/02/05,03:40,0.697,1.008,0.657,1.254,0.875,0.404,0.704,0.669,���k��,8.9,��
2020/02/05,03:50,0.699,1.007,0.659,1.252,0.875,0.402,0.704,0.670,��,7.8,��
2020/02/05,04:00,0.697,1.007,0.657,1.251,0.875,0.403,0.707,0.669,���k��,9.6,��
2020/02/05,04:10,0.699,1.008,0.659,1.254,0.875,0.402,0.704,0.669,��,9.7,��
2020/02/05,04:20,0.697,1.008,0.656,1.257,0.874,0.404,0.705,0.670,��,9.1,��
2020/02/05,04:30,0.700,1.007,0.659,1.253,0.874,0.402,0.703,0.669,��,7.5,��
2020/02/05,04:40,0.696,1.006,0.659,1.252,0.873,0.403,0.707,0.668,��,7.7,��
2020/02/05,04:50,0.699,1.009,0.660,1.254,0.876,0.403,0.705,0.670,���k��,9.6,��
2020/02/05,05:00,0.700,1.008,0.656,1.254,0.874,0.404,0.706,0.668,��,9.4,��
2020/02/05,05:10,0.698,1.008,0.660,1.253,0.876,0.403,0.706,0.669,���k��,6.7,��
2020/02/05,05:20,0.699,1.008,0.660,1.254,0.872,0.403,0.706,0.671,���k��,6.0,��
2020/02/05,05:30,0.698,1.009,0.660,1.254,0.874,0.403,0.707,0.670,��,5.0,��
2020/02/05,05:40,0.699,1.008,0.659,1.255,0.876,0.404,0.707,0.671,��,4.9,��
2020/02/05,05:50,0.698,1.009,0.658,1.255,0.874,0.403,0.706,0.670,���k��,3.6,��
2020/02/05,06:00,0.698,1.009,0.659,1.254,0.875,0.405,0.707,0.669,�k��,4.4,��
2020/02/05,06:10,0.698,1.007,0.659,1.254,0.874,0.403,0.706,0.669,�k��,3.1,��
2020/02/05,06:20,0.697,1.010,0.657,1.252,0.873,0.404,0.706,0.671,�k��,2.7,��
2020/02/05,06:30,0.696,1.007,0.657,1.253,0.873,0.402,0.706,0.669,�k��,2.2,��
2020/02/05,06:40,0.698,1.009,0.658,1.255,0.873,0.404,0.705,0.669,�k,2.6,��
2020/02/05,06:50,0.699,1.007,0.659,1.253,0.874,0.401,0.704,0.669,�k�k��,1.4,��
2020/02/05,07:00,0.698,1.005,0.657,1.255,0.875,0.402,0.705,0.669,���쐼,0.7,��
2020/02/05,07:10,0.699,1.009,0.659,1.251,0.875,0.403,0.706,0.669,��,0.5,��
2020/02/05,07:20,0.697,1.007,0.656,1.253,0.873,0.403,0.705,0.669,���쐼,0.6,��
2020/02/05,07:30,0.699,1.007,0.656,1.253,0.874,0.403,0.704,0.669,��,1.0,��
2020/02/05,07:40,0.697,1.006,0.658,1.252,0.874,0.403,0.710,0.669,���쐼,1.7,��
2020/02/05,07:50,0.698,1.008,0.656,1.254,0.875,0.403,0.706,0.671,�k��,1.0,��
2020/02/05,08:00,0.698,1.007,0.659,1.253,0.874,0.404,0.705,0.671,��,1.2,��
2020/02/05,08:10,0.697,1.010,0.657,1.254,0.874,0.403,0.705,0.669,���쐼,2.0,��
2020/02/05,08:20,0.698,1.008,0.658,1.254,0.874,0.403,0.706,0.669,��,1.2,��
2020/02/05,08:30,0.700,1.007,0.657,1.254,0.874,0.402,0.707,0.672,�k��,0.7,��
2020/02/05,08:40,0.698,1.006,0.657,1.255,0.875,0.404,0.707,0.670,�k��,0.6,��
2020/02/05,08:50,0.702,1.007,0.658,1.255,0.877,0.404,0.705,0.671,��,0.6,��
2020/02/05,09:00,0.701,1.006,0.657,1.254,0.875,0.402,0.707,0.671,�k��,2.0,��
2020/02/05,09:10,0.700,1.005,0.657,1.254,0.876,0.404,0.708,0.669,�k��,2.3,��
2020/02/05,09:20,0.700,1.003,0.658,1.255,0.877,0.404,0.707,0.670,���k��,2.8,��
2020/02/05,09:30,0.700,1.003,0.658,1.252,0.876,0.405,0.708,0.670,��,1.2,��
2020/02/05,09:40,0.700,1.002,0.658,1.253,0.876,0.403,0.705,0.669,�k��,2.1,��
2020/02/05,09:50,0.700,1.000,0.659,1.255,0.877,0.404,0.705,0.671,�쓌,1.6,��
2020/02/05,10:00,0.700,1.004,0.659,1.256,0.875,0.405,0.706,0.670,�쓌,2.5,��
2020/02/05,10:10,0.701,1.006,0.657,1.255,0.876,0.406,0.704,0.669,�쓌,4.1,��
2020/02/05,10:20,0.701,1.005,0.661,1.255,0.877,0.406,0.706,0.671,�쓌,4.2,��
2020/02/05,10:30,0.702,1.004,0.658,1.255,0.878,0.405,0.706,0.671,�쓌,4.4,��
2020/02/05,10:40,0.700,1.007,0.658,1.258,0.878,0.406,0.706,0.671,��쓌,5.6,��
2020/02/05,10:50,0.701,1.005,0.659,1.255,0.878,0.405,0.705,0.672,��쓌,5.5,��
2020/02/05,11:00,0.703,1.006,0.660,1.257,0.877,0.405,0.705,0.672,��쓌,5.2,��
2020/02/05,11:10,0.704,1.007,0.659,1.256,0.879,0.404,0.706,0.672,�쐼,4.9,��
2020/02/05,11:20,0.703,1.005,0.659,1.255,0.879,0.404,0.706,0.671,���쐼,10.5,��
2020/02/05,11:30,0.704,1.005,0.659,1.256,0.879,0.404,0.707,0.670,���쐼,11.1,��
2020/02/05,11:40,0.699,1.005,0.661,1.258,0.878,0.405,0.707,0.671,���쐼,11.6,��
2020/02/05,11:50,0.681,1.008,0.659,1.257,0.881,0.405,0.707,0.671,���쐼,8.2,��
2020/02/05,12:00,0.684,1.006,0.659,1.256,0.878,0.405,0.708,0.672,���쐼,9.4,��
2020/02/05,12:10,0.680,1.008,0.660,1.261,0.877,0.406,0.708,0.671,���쐼,9.9,��
2020/02/05,12:20,0.678,1.008,0.661,1.261,0.879,0.406,0.707,0.672,���쐼,8.3,��
2020/02/05,12:30,0.680,1.009,0.661,1.260,0.877,0.407,0.706,0.671,��,8.0,��
2020/02/05,12:40,0.683,1.010,0.660,1.258,0.879,0.407,0.706,0.673,���k��,6.0,��
2020/02/05,12:50,0.673,1.008,0.661,1.258,0.876,0.406,0.707,0.672,��,6.4,��
2020/02/05,13:00,0.679,1.008,0.661,1.259,0.878,0.406,0.705,0.671,��,7.2,��
2020/02/05,13:10,0.685,1.008,0.661,1.260,0.881,0.408,0.706,0.672,��,9.1,��
2020/02/05,13:20,0.687,1.008,0.660,1.258,0.878,0.405,0.705,0.672,��,12.2,��
2020/02/05,13:30,0.688,1.008,0.661,1.258,0.880,0.407,0.705,0.672,��,11.3,�L
2020/02/05,13:40,0.682,1.006,0.660,1.260,0.879,0.406,0.706,0.672,��,10.5,�L
2020/02/05,13:50,0.678,1.010,0.659,1.260,0.879,0.406,0.705,0.670,��,8.8,�L
2020/02/05,14:00,0.677,1.007,0.660,1.261,0.879,0.406,0.706,0.670,��,7.5,��
2020/02/05,14:10,0.679,1.007,0.659,1.260,0.881,0.406,0.707,0.670,���쐼,7.7,��
2020/02/05,14:20,0.680,1.009,0.660,1.260,0.880,0.407,0.706,0.670,��,8.3,��
2020/02/05,14:30,0.676,1.007,0.661,1.256,0.880,0.407,0.705,0.670,���쐼,8.8,��
2020/02/05,14:40,0.680,1.008,0.658,1.260,0.879,0.407,0.706,0.669,��,8.9,��
2020/02/05,14:50,0.680,1.007,0.659,1.261,0.877,0.406,0.705,0.669,��,6.9,��
2020/02/05,15:00,0.679,1.005,0.661,1.260,0.878,0.407,0.706,0.671,���k��,7.1,��
2020/02/05,15:10,0.676,1.008,0.660,1.258,0.881,0.406,0.706,0.669,���k��,7.7,��
2020/02/05,15:20,0.676,1.007,0.661,1.259,0.881,0.406,0.705,0.669,�k��,7.8,�L
2020/02/05,15:30,0.680,1.012,0.660,1.261,0.881,0.406,0.705,0.670,�k��,8.2,�L
2020/02/05,15:40,0.681,1.012,0.662,1.261,0.882,0.407,0.704,0.672,���k��,6.3,�L
2020/02/05,15:50,0.694,1.014,0.663,1.260,0.882,0.407,0.706,0.672,���k��,5.2,�L
2020/02/05,16:00,0.699,1.015,0.663,1.260,0.879,0.406,0.707,0.671,���k��,5.2,��
2020/02/05,16:10,0.698,1.014,0.661,1.261,0.879,0.406,0.706,0.669,�k��,6.0,��
2020/02/05,16:20,0.698,1.014,0.663,1.259,0.881,0.406,0.707,0.671,�k�k��,5.2,�L
2020/02/05,16:30,0.699,1.014,0.660,1.261,0.879,0.407,0.706,0.671,�k�k��,6.3,�L
2020/02/05,16:40,0.697,1.018,0.659,1.259,0.882,0.407,0.706,0.671,�k,5.5,��
2020/02/05,16:50,0.698,1.016,0.661,1.259,0.881,0.405,0.706,0.670,�k�k��,5.3,�L
2020/02/05,17:00,0.697,1.015,0.660,1.258,0.882,0.404,0.707,0.670,�k,5.8,��
2020/02/05,17:10,0.698,1.015,0.660,1.261,0.881,0.403,0.708,0.671,�k,7.4,��
2020/02/05,17:20,0.696,1.013,0.660,1.257,0.880,0.404,0.707,0.672,�k�k��,7.4,��
2020/02/05,17:30,0.698,1.014,0.661,1.260,0.881,0.403,0.707,0.669,�k,5.6,��
2020/02/05,17:40,0.697,1.016,0.661,1.259,0.881,0.403,0.706,0.670,�k�k��,6.0,��
2020/02/05,17:50,0.696,1.014,0.660,1.258,0.882,0.403,0.707,0.671,�k,7.7,��
2020/02/05,18:00,0.696,1.017,0.660,1.256,0.880,0.403,0.706,0.670,�k,8.3,��
2020/02/05,18:10,0.698,1.013,0.660,1.258,0.881,0.403,0.706,0.673,�k,6.9,��
2020/02/05,18:20,0.696,1.012,0.659,1.260,0.880,0.402,0.704,0.669,�k,6.9,��
2020/02/05,18:30,0.695,1.015,0.659,1.259,0.879,0.402,0.704,0.670,�k,5.5,��
2020/02/05,18:40,0.695,1.013,0.660,1.257,0.880,0.402,0.705,0.671,�k�k��,5.2,��
2020/02/05,18:50,0.696,1.013,0.661,1.258,0.880,0.401,0.706,0.669,�k�k��,5.5,��
2020/02/05,19:00,0.694,1.010,0.659,1.258,0.880,0.401,0.706,0.670,�k�k��,5.0,��
2020/02/05,19:10,0.694,1.013,0.658,1.258,0.878,0.402,0.704,0.670,�k�k��,5.5,��
2020/02/05,19:20,0.694,1.013,0.659,1.257,0.879,0.401,0.704,0.671,�k��,5.5,��
2020/02/05,19:30,0.693,1.013,0.659,1.260,0.880,0.402,0.706,0.669,�k��,7.8,��
2020/02/05,19:40,0.693,1.013,0.658,1.259,0.878,0.401,0.704,0.669,�k��,7.1,��
2020/02/05,19:50,0.695,1.014,0.658,1.258,0.879,0.400,0.706,0.670,�k��,9.9,��
2020/02/05,20:00,0.695,1.011,0.659,1.258,0.880,0.401,0.705,0.669,�k��,6.0,��
2020/02/05,20:10,0.694,1.012,0.658,1.259,0.879,0.400,0.705,0.670,���k��,9.7,��
2020/02/05,20:20,0.694,1.013,0.656,1.257,0.880,0.399,0.705,0.670,���k��,10.5,��
2020/02/05,20:30,0.694,1.012,0.657,1.258,0.878,0.400,0.705,0.670,�k��,8.6,��
2020/02/05,20:40,0.696,1.012,0.658,1.258,0.879,0.399,0.707,0.670,�k��,6.3,��
2020/02/05,20:50,0.694,1.013,0.657,1.259,0.878,0.400,0.705,0.670,�k��,6.3,��
2020/02/05,21:00,0.694,1.012,0.658,1.260,0.877,0.399,0.704,0.671,�k��,6.6,��
2020/02/05,21:10,0.695,1.011,0.659,1.255,0.880,0.399,0.703,0.670,�k�k��,6.9,��
2020/02/05,21:20,0.694,1.016,0.657,1.259,0.880,0.399,0.706,0.669,�k��,6.0,��
2020/02/05,21:30,0.696,1.015,0.657,1.259,0.878,0.401,0.705,0.670,�k��,6.9,��
2020/02/05,21:40,0.695,1.012,0.657,1.256,0.881,0.402,0.704,0.670,�k�k��,6.3,��
2020/02/05,21:50,0.692,1.011,0.659,1.258,0.881,0.402,0.706,0.670,�k�k��,4.4,��
2020/02/05,22:00,0.695,1.011,0.657,1.257,0.879,0.401,0.705,0.671,�k��,4.4,��
2020/02/05,22:10,0.697,1.013,0.658,1.257,0.877,0.401,0.704,0.669,���k��,4.7,��
2020/02/05,22:20,0.694,1.014,0.658,1.258,0.881,0.402,0.704,0.670,��,4.9,��
2020/02/05,22:30,0.694,1.013,0.659,1.259,0.880,0.401,0.703,0.669,���k��,5.0,��
2020/02/05,22:40,0.695,1.015,0.659,1.259,0.879,0.402,0.707,0.670,��,4.0,��
2020/02/05,22:50,0.692,1.013,0.658,1.257,0.880,0.400,0.705,0.670,��,4.9,��
2020/02/05,23:00,0.694,1.014,0.658,1.258,0.878,0.402,0.705,0.670,��,4.1,��
2020/02/05,23:10,0.694,1.013,0.660,1.259,0.878,0.402,0.705,0.671,��,4.2,��
2020/02/05,23:20,0.693,1.015,0.659,1.259,0.880,0.402,0.704,0.669,��,3.8,��
2020/02/05,23:30,0.692,1.013,0.660,1.259,0.880,0.400,0.703,0.671,��,3.8,��
2020/02/05,23:40,0.693,1.012,0.657,1.256,0.881,0.401,0.705,0.671,���쐼,2.7,��
2020/02/05,23:50,0.695,1.013,0.657,1.257,0.880,0.402,0.705,0.670,�쐼,3.0,��
